Time,TemperatureF,DewpointF,PressureIn,WindDirection,WindDirectionDegrees,WindSpeedMPH,WindSpeedGustMPH,Humidity,HourlyPrecipIn,Conditions,Clouds,dailyrainin,SoftwareType,DateUTC
2013-08-11 00:04:00,64.4,60.1,30.12,ESE,117,0.0,0.0,86,0.00,,,0.00,Wunderground v.1.15,2013-08-11 05:04:00,
2013-08-11 00:11:00,64.5,60.2,30.13,ESE,117,0.0,0.0,86,0.00,,,0.00,Wunderground v.1.15,2013-08-11 05:11:00,
2013-08-11 00:17:00,64.5,59.9,30.12,ESE,117,0.0,0.0,85,0.00,,,0.00,Wunderground v.1.15,2013-08-11 05:17:00,
2013-08-11 00:22:00,64.6,60.0,30.12,ESE,117,0.0,0.0,85,0.00,,,0.00,Wunderground v.1.15,2013-08-11 05:22:00,
2013-08-11 00:27:00,64.5,59.9,30.12,ESE,117,0.0,0.0,85,0.00,,,0.00,Wunderground v.1.15,2013-08-11 05:27:00,
2013-08-11 00:33:00,64.5,59.9,30.12,ESE,117,0.0,0.0,85,0.00,,,0.00,Wunderground v.1.15,2013-08-11 05:33:00,
2013-08-11 00:39:00,64.6,60.0,30.12,ESE,117,0.0,0.0,85,0.00,,,0.00,Wunderground v.1.15,2013-08-11 05:39:00,
2013-08-11 00:45:00,64.4,59.8,30.12,ESE,117,0.0,0.0,85,0.00,,,0.00,Wunderground v.1.15,2013-08-11 05:45:00,
2013-08-11 00:50:00,64.0,59.7,30.13,ESE,117,0.0,0.0,86,0.00,,,0.00,Wunderground v.1.15,2013-08-11 05:50:00,
2013-08-11 00:56:00,63.3,59.4,30.12,ESE,117,0.0,1.0,87,0.00,,,0.00,Wunderground v.1.15,2013-08-11 05:56:00,
2013-08-11 01:01:00,63.0,59.4,30.12,ESE,117,0.0,0.0,88,0.00,,,0.00,Wunderground v.1.15,2013-08-11 06:01:00,
2013-08-11 01:09:00,62.7,59.1,30.12,ESE,117,0.0,0.0,88,0.00,,,0.00,Wunderground v.1.15,2013-08-11 06:09:00,
2013-08-11 01:14:00,62.6,59.3,30.12,ESE,117,0.0,0.0,89,0.00,,,0.00,Wunderground v.1.15,2013-08-11 06:14:00,
2013-08-11 01:23:00,62.5,59.2,30.12,ESE,117,0.0,0.0,89,0.00,,,0.00,Wunderground v.1.15,2013-08-11 06:23:00,
2013-08-11 01:36:00,62.3,59.0,30.12,ESE,117,0.0,0.0,89,0.00,,,0.00,Wunderground v.1.15,2013-08-11 06:36:00,
2013-08-11 01:45:00,62.4,59.1,30.12,ESE,117,0.0,0.0,89,0.00,,,0.00,Wunderground v.1.15,2013-08-11 06:45:00,
2013-08-11 01:51:00,62.2,58.9,30.11,ESE,117,0.0,0.0,89,0.00,,,0.00,Wunderground v.1.15,2013-08-11 06:51:00,
2013-08-11 01:57:00,62.2,58.9,30.12,ESE,117,0.0,0.0,89,0.00,,,0.00,Wunderground v.1.15,2013-08-11 06:57:00,
2013-08-11 02:03:00,62.2,58.9,30.11,ESE,117,0.0,0.0,89,0.00,,,0.00,Wunderground v.1.15,2013-08-11 07:03:00,
2013-08-11 02:09:00,62.4,59.1,30.12,ESE,117,0.0,0.0,89,0.00,,,0.00,Wunderground v.1.15,2013-08-11 07:09:00,
2013-08-11 02:17:00,62.6,59.0,30.12,ESE,117,0.0,0.0,88,0.00,,,0.00,Wunderground v.1.15,2013-08-11 07:17:00,
2013-08-11 02:23:00,62.5,58.9,30.12,ESE,117,0.0,0.0,88,0.00,,,0.00,Wunderground v.1.15,2013-08-11 07:23:00,
2013-08-11 02:29:00,62.4,58.5,30.12,ESE,117,0.0,0.0,87,0.00,,,0.00,Wunderground v.1.15,2013-08-11 07:29:00,
2013-08-11 02:34:00,62.3,58.7,30.12,ESE,117,0.0,0.0,88,0.00,,,0.00,Wunderground v.1.15,2013-08-11 07:34:00,
2013-08-11 02:41:00,62.2,58.6,30.12,ESE,117,0.0,0.0,88,0.00,,,0.00,Wunderground v.1.15,2013-08-11 07:41:00,
2013-08-11 02:47:00,62.2,58.6,30.11,ESE,117,0.0,0.0,88,0.00,,,0.00,Wunderground v.1.15,2013-08-11 07:47:00,
2013-08-11 02:52:00,62.0,58.7,30.11,ESE,117,0.0,0.0,89,0.00,,,0.00,Wunderground v.1.15,2013-08-11 07:52:00,
2013-08-11 03:00:00,61.5,58.2,30.11,ESE,117,0.0,0.0,89,0.00,,,0.00,Wunderground v.1.15,2013-08-11 08:00:00,
2013-08-11 03:14:00,61.1,58.5,30.11,ESE,117,0.0,0.0,91,0.00,,,0.00,Wunderground v.1.15,2013-08-11 08:14:00,
2013-08-11 03:20:00,61.0,58.4,30.12,ESE,117,0.0,0.0,91,0.00,,,0.00,Wunderground v.1.15,2013-08-11 08:20:00,
2013-08-11 03:25:00,61.1,58.5,30.12,ESE,117,0.0,0.0,91,0.00,,,0.00,Wunderground v.1.15,2013-08-11 08:25:00,
2013-08-11 03:31:00,61.4,58.4,30.12,ESE,117,0.0,0.0,90,0.00,,,0.00,Wunderground v.1.15,2013-08-11 08:31:00,
2013-08-11 03:37:00,61.4,58.4,30.12,ESE,117,0.0,0.0,90,0.00,,,0.00,Wunderground v.1.15,2013-08-11 08:37:00,
2013-08-11 03:44:00,61.4,58.7,30.11,ESE,117,0.0,0.0,91,0.00,,,0.00,Wunderground v.1.15,2013-08-11 08:44:00,
2013-08-11 03:50:00,61.4,58.7,30.11,ESE,117,0.0,0.0,91,0.00,,,0.00,Wunderground v.1.15,2013-08-11 08:50:00,
2013-08-11 03:56:00,61.1,58.5,30.11,ESE,117,0.0,0.0,91,0.00,,,0.00,Wunderground v.1.15,2013-08-11 08:56:00,
2013-08-11 04:01:00,60.9,58.3,30.11,ESE,117,0.0,0.0,91,0.00,,,0.00,Wunderground v.1.15,2013-08-11 09:01:00,
2013-08-11 04:11:00,60.3,57.7,30.11,ESE,117,0.0,0.0,91,0.00,,,0.00,Wunderground v.1.15,2013-08-11 09:11:00,
2013-08-11 04:17:00,60.0,57.7,30.11,ESE,117,0.0,0.0,92,0.00,,,0.00,Wunderground v.1.15,2013-08-11 09:17:00,
2013-08-11 04:23:00,59.8,57.8,30.11,ESE,117,0.0,0.0,93,0.00,,,0.00,Wunderground v.1.15,2013-08-11 09:23:00,
2013-08-11 04:31:00,59.6,57.6,30.11,ESE,117,0.0,0.0,93,0.00,,,0.00,Wunderground v.1.15,2013-08-11 09:31:00,
2013-08-11 04:37:00,59.7,58.0,30.11,ESE,117,0.0,0.0,94,0.00,,,0.00,Wunderground v.1.15,2013-08-11 09:37:00,
2013-08-11 04:42:00,59.6,57.9,30.10,ESE,117,0.0,0.0,94,0.00,,,0.00,Wunderground v.1.15,2013-08-11 09:42:00,
2013-08-11 04:47:00,59.5,57.5,30.10,ESE,117,0.0,0.0,93,0.00,,,0.00,Wunderground v.1.15,2013-08-11 09:47:00,
2013-08-11 04:53:00,59.3,57.6,30.10,ESE,117,0.0,0.0,94,0.00,,,0.00,Wunderground v.1.15,2013-08-11 09:53:00,
2013-08-11 04:59:00,59.1,57.4,30.10,ESE,117,0.0,0.0,94,0.00,,,0.00,Wunderground v.1.15,2013-08-11 09:59:00,
2013-08-11 05:04:00,59.2,57.5,30.10,ESE,117,0.0,0.0,94,0.00,,,0.00,Wunderground v.1.15,2013-08-11 10:04:00,
2013-08-11 05:10:00,59.2,57.5,30.10,ESE,117,0.0,0.0,94,0.00,,,0.00,Wunderground v.1.15,2013-08-11 10:10:00,
2013-08-11 05:15:00,59.4,57.7,30.10,ESE,117,0.0,0.0,94,0.00,,,0.00,Wunderground v.1.15,2013-08-11 10:15:00,
2013-08-11 05:20:00,59.3,57.6,30.10,ESE,117,0.0,0.0,94,0.00,,,0.00,Wunderground v.1.15,2013-08-11 10:20:00,
2013-08-11 05:26:00,59.2,57.5,30.10,ESE,117,0.0,0.0,94,0.00,,,0.00,Wunderground v.1.15,2013-08-11 10:26:00,
2013-08-11 05:32:00,59.3,57.6,30.10,ESE,117,0.0,0.0,94,0.00,,,0.00,Wunderground v.1.15,2013-08-11 10:32:00,
2013-08-11 05:38:00,59.6,57.9,30.10,ESE,117,0.0,0.0,94,0.00,,,0.00,Wunderground v.1.15,2013-08-11 10:38:00,
2013-08-11 05:44:00,59.5,57.8,30.11,ESE,117,0.0,0.0,94,0.00,,,0.00,Wunderground v.1.15,2013-08-11 10:44:00,
2013-08-11 05:50:00,59.6,57.9,30.10,ESE,117,0.0,0.0,94,0.00,,,0.00,Wunderground v.1.15,2013-08-11 10:50:00,
2013-08-11 05:55:00,59.8,57.8,30.10,ESE,117,0.0,0.0,93,0.00,,,0.00,Wunderground v.1.15,2013-08-11 10:55:00,
2013-08-11 06:00:00,59.9,57.9,30.10,ESE,117,0.0,0.0,93,0.00,,,0.00,Wunderground v.1.15,2013-08-11 11:00:00,
2013-08-11 06:06:00,59.7,57.7,30.11,ESE,117,0.0,0.0,93,0.00,,,0.00,Wunderground v.1.15,2013-08-11 11:06:00,
2013-08-11 06:12:00,59.5,57.5,30.11,ESE,117,0.0,0.0,93,0.00,,,0.00,Wunderground v.1.15,2013-08-11 11:12:00,
2013-08-11 06:18:00,59.5,57.8,30.11,ESE,117,0.0,0.0,94,0.00,,,0.00,Wunderground v.1.15,2013-08-11 11:18:00,
2013-08-11 06:24:00,59.3,57.6,30.11,ESE,117,0.0,0.0,94,0.00,,,0.00,Wunderground v.1.15,2013-08-11 11:24:00,
2013-08-11 06:29:00,59.4,57.7,30.12,ESE,117,0.0,0.0,94,0.00,,,0.00,Wunderground v.1.15,2013-08-11 11:29:00,
2013-08-11 06:35:00,59.8,57.8,30.12,ESE,117,0.0,0.0,93,0.00,,,0.00,Wunderground v.1.15,2013-08-11 11:35:00,
2013-08-11 06:41:00,60.2,58.2,30.12,ESE,117,0.0,0.0,93,0.00,,,0.00,Wunderground v.1.15,2013-08-11 11:41:00,
2013-08-11 06:47:00,60.3,58.0,30.12,ESE,117,0.0,0.0,92,0.00,,,0.00,Wunderground v.1.15,2013-08-11 11:47:00,
2013-08-11 06:52:00,60.4,58.1,30.12,ESE,117,0.0,0.0,92,0.00,,,0.00,Wunderground v.1.15,2013-08-11 11:52:00,
2013-08-11 06:58:00,60.4,58.4,30.11,ESE,117,0.0,1.0,93,0.00,,,0.00,Wunderground v.1.15,2013-08-11 11:58:00,
2013-08-11 07:05:00,60.7,58.7,30.11,ESE,117,0.0,0.0,93,0.00,,,0.00,Wunderground v.1.15,2013-08-11 12:05:00,
2013-08-11 07:11:00,61.0,59.3,30.12,ESE,117,0.0,2.0,94,0.00,,,0.00,Wunderground v.1.15,2013-08-11 12:11:00,
2013-08-11 07:16:00,61.5,59.8,30.12,WSW,254,1.0,3.0,94,0.00,,,0.00,Wunderground v.1.15,2013-08-11 12:16:00,
2013-08-11 07:22:00,62.2,60.2,30.12,WSW,254,1.0,1.0,93,0.00,,,0.00,Wunderground v.1.15,2013-08-11 12:22:00,
2013-08-11 07:28:00,62.9,60.5,30.12,WSW,254,0.0,1.0,92,0.00,,,0.00,Wunderground v.1.15,2013-08-11 12:28:00,
2013-08-11 07:33:00,63.7,61.3,30.12,WSW,254,1.0,2.0,92,0.00,,,0.00,Wunderground v.1.15,2013-08-11 12:33:00,
2013-08-11 07:39:00,64.4,61.4,30.12,WSW,254,1.0,2.0,90,0.00,,,0.00,Wunderground v.1.15,2013-08-11 12:39:00,
2013-08-11 07:44:00,65.0,61.7,30.12,WSW,254,1.0,3.0,89,0.00,,,0.00,Wunderground v.1.15,2013-08-11 12:44:00,
2013-08-11 07:50:00,65.6,62.3,30.12,WSW,254,1.0,1.0,89,0.00,,,0.00,Wunderground v.1.15,2013-08-11 12:50:00,
2013-08-11 07:56:00,66.0,62.0,30.12,WSW,254,1.0,2.0,87,0.00,,,0.00,Wunderground v.1.15,2013-08-11 12:56:00,
2013-08-11 08:01:00,66.4,62.4,30.11,WSW,254,1.0,1.0,87,0.00,,,0.00,Wunderground v.1.15,2013-08-11 13:01:00,
2013-08-11 08:06:00,66.8,62.8,30.11,WSW,254,0.0,1.0,87,0.00,,,0.00,Wunderground v.1.15,2013-08-11 13:06:00,
2013-08-11 08:20:00,68.1,63.1,30.11,WSW,254,2.0,2.0,84,0.00,,,0.00,Wunderground v.1.15,2013-08-11 13:20:00,
2013-08-11 08:26:00,68.7,63.3,30.11,WSW,254,3.0,4.0,83,0.00,,,0.00,Wunderground v.1.15,2013-08-11 13:26:00,
2013-08-11 08:32:00,69.1,63.0,30.11,WSW,254,2.0,2.0,81,0.00,,,0.00,Wunderground v.1.15,2013-08-11 13:32:00,
2013-08-11 08:45:00,70.3,63.5,30.11,West,261,1.0,3.0,79,0.00,,,0.00,Wunderground v.1.15,2013-08-11 13:45:00,
2013-08-11 08:51:00,70.8,63.2,30.11,West,261,1.0,2.0,77,0.00,,,0.00,Wunderground v.1.15,2013-08-11 13:51:00,
2013-08-11 08:58:00,71.4,63.8,30.11,West,261,1.0,3.0,77,0.00,,,0.00,Wunderground v.1.15,2013-08-11 13:58:00,
2013-08-11 09:04:00,71.7,63.7,30.11,WNW,293,3.0,4.0,76,0.00,,,0.00,Wunderground v.1.15,2013-08-11 14:04:00,
2013-08-11 09:09:00,72.0,62.9,30.11,West,278,4.0,7.0,73,0.00,,,0.00,Wunderground v.1.15,2013-08-11 14:09:00,
2013-08-11 09:15:00,72.3,63.5,30.11,WNW,284,4.0,6.0,74,0.00,,,0.00,Wunderground v.1.15,2013-08-11 14:15:00,
2013-08-11 09:21:00,72.5,63.0,30.11,West,263,4.0,5.0,72,0.00,,,0.00,Wunderground v.1.15,2013-08-11 14:21:00,
2013-08-11 09:27:00,72.9,64.1,30.11,West,265,4.0,5.0,74,0.00,,,0.00,Wunderground v.1.15,2013-08-11 14:27:00,
2013-08-11 09:35:00,73.3,64.1,30.11,West,281,5.0,6.0,73,0.00,,,0.00,Wunderground v.1.15,2013-08-11 14:35:00,
2013-08-11 09:45:00,73.8,63.8,30.11,West,280,5.0,5.0,71,0.00,,,0.00,Wunderground v.1.15,2013-08-11 14:45:00,
2013-08-11 09:51:00,74.2,63.4,30.11,WSW,250,5.0,5.0,69,0.00,,,0.00,Wunderground v.1.15,2013-08-11 14:51:00,
2013-08-11 09:56:00,74.3,63.1,30.11,SW,233,5.0,7.0,68,0.00,,,0.00,Wunderground v.1.15,2013-08-11 14:56:00,
2013-08-11 10:02:00,74.8,63.1,30.11,WSW,255,5.0,8.0,67,0.00,,,0.00,Wunderground v.1.15,2013-08-11 15:02:00,
2013-08-11 10:07:00,74.9,63.6,30.11,West,281,5.0,8.0,68,0.00,,,0.00,Wunderground v.1.15,2013-08-11 15:07:00,
2013-08-11 10:13:00,75.2,63.5,30.11,WSW,248,5.0,10.0,67,0.00,,,0.00,Wunderground v.1.15,2013-08-11 15:13:00,
2013-08-11 10:19:00,75.5,62.5,30.11,WSW,252,5.0,10.0,64,0.00,,,0.00,Wunderground v.1.15,2013-08-11 15:19:00,
2013-08-11 10:24:00,75.7,64.8,30.11,WNW,282,5.0,6.0,69,0.00,,,0.00,Wunderground v.1.15,2013-08-11 15:24:00,
2013-08-11 10:30:00,76.1,63.0,30.11,West,260,4.0,5.0,64,0.00,,,0.00,Wunderground v.1.15,2013-08-11 15:30:00,
2013-08-11 10:38:00,76.3,62.8,30.11,WSW,244,5.0,5.0,63,0.00,,,0.00,Wunderground v.1.15,2013-08-11 15:38:00,
2013-08-11 10:44:00,76.6,63.1,30.11,WSW,246,4.0,6.0,63,0.00,,,0.00,Wunderground v.1.15,2013-08-11 15:44:00,
2013-08-11 10:51:00,77.2,62.2,30.11,WSW,251,5.0,9.0,60,0.00,,,0.00,Wunderground v.1.15,2013-08-11 15:51:00,
2013-08-11 10:57:00,77.2,63.2,30.11,West,262,5.0,9.0,62,0.00,,,0.00,Wunderground v.1.15,2013-08-11 15:57:00,
2013-08-11 11:03:00,77.5,64.4,30.11,WSW,250,5.0,6.0,64,0.00,,,0.00,Wunderground v.1.15,2013-08-11 16:03:00,
2013-08-11 11:09:00,77.7,65.0,30.11,West,266,5.0,6.0,65,0.00,,,0.00,Wunderground v.1.15,2013-08-11 16:09:00,
2013-08-11 11:14:00,78.3,62.8,30.11,West,269,5.0,7.0,59,0.00,,,0.00,Wunderground v.1.15,2013-08-11 16:14:00,
2013-08-11 11:20:00,78.2,63.6,30.11,WSW,250,5.0,7.0,61,0.00,,,0.00,Wunderground v.1.15,2013-08-11 16:20:00,
2013-08-11 11:31:00,78.3,63.7,30.11,West,281,5.0,7.0,61,0.00,,,0.00,Wunderground v.1.15,2013-08-11 16:31:00,
2013-08-11 11:39:00,78.5,63.5,30.11,West,265,6.0,7.0,60,0.00,,,0.00,Wunderground v.1.15,2013-08-11 16:39:00,
2013-08-11 11:45:00,78.8,63.7,30.11,WSW,250,6.0,8.0,60,0.00,,,0.00,Wunderground v.1.15,2013-08-11 16:45:00,
2013-08-11 11:50:00,78.9,63.4,30.11,SW,236,5.0,9.0,59,0.00,,,0.00,Wunderground v.1.15,2013-08-11 16:50:00,
2013-08-11 11:56:00,79.8,64.2,30.11,SSW,206,3.0,5.0,59,0.00,,,0.00,Wunderground v.1.15,2013-08-11 16:56:00,
2013-08-11 12:02:00,80.3,64.2,30.11,WNW,289,2.0,2.0,58,0.00,,,0.00,Wunderground v.1.15,2013-08-11 17:02:00,
2013-08-11 12:07:00,80.0,62.9,30.11,West,276,3.0,6.0,56,0.00,,,0.00,Wunderground v.1.15,2013-08-11 17:07:00,
2013-08-11 12:14:00,80.1,64.0,30.11,WSW,250,4.0,7.0,58,0.00,,,0.00,Wunderground v.1.15,2013-08-11 17:14:00,
2013-08-11 12:21:00,80.0,64.9,30.11,SSW,206,3.0,3.0,60,0.00,,,0.00,Wunderground v.1.15,2013-08-11 17:21:00,
2013-08-11 12:26:00,79.6,64.0,30.10,West,263,3.0,8.0,59,0.00,,,0.00,Wunderground v.1.15,2013-08-11 17:26:00,
2013-08-11 12:32:00,79.4,63.3,30.11,West,266,5.0,6.0,58,0.00,,,0.00,Wunderground v.1.15,2013-08-11 17:32:00,
2013-08-11 12:38:00,79.8,64.2,30.11,WSW,244,4.0,6.0,59,0.00,,,0.00,Wunderground v.1.15,2013-08-11 17:38:00,
2013-08-11 12:43:00,80.2,62.6,30.11,WSW,238,3.0,5.0,55,0.00,,,0.00,Wunderground v.1.15,2013-08-11 17:43:00,
2013-08-11 12:50:00,80.7,64.5,30.11,West,269,3.0,7.0,58,0.00,,,0.00,Wunderground v.1.15,2013-08-11 17:50:00,
2013-08-11 12:57:00,80.4,62.8,30.11,WNW,285,4.0,7.0,55,0.00,,,0.00,Wunderground v.1.15,2013-08-11 17:57:00,
2013-08-11 13:02:00,81.1,65.4,30.11,SW,233,3.0,6.0,59,0.00,,,0.00,Wunderground v.1.15,2013-08-11 18:02:00,
2013-08-11 13:09:00,81.0,63.3,30.11,West,281,5.0,8.0,55,0.00,,,0.00,Wunderground v.1.15,2013-08-11 18:09:00,
2013-08-11 13:14:00,81.3,64.1,30.11,West,279,5.0,5.0,56,0.00,,,0.00,Wunderground v.1.15,2013-08-11 18:14:00,
2013-08-11 13:20:00,81.7,64.0,30.11,SW,220,3.0,3.0,55,0.00,,,0.00,Wunderground v.1.15,2013-08-11 18:20:00,
2013-08-11 13:26:00,81.9,65.2,30.10,WNW,289,3.0,6.0,57,0.00,,,0.00,Wunderground v.1.15,2013-08-11 18:26:00,
2013-08-11 13:31:00,82.0,65.3,30.10,SSW,209,3.0,3.0,57,0.00,,,0.00,Wunderground v.1.15,2013-08-11 18:31:00,
2013-08-11 13:37:00,82.7,67.4,30.10,SW,224,2.0,4.0,60,0.00,,,0.00,Wunderground v.1.15,2013-08-11 18:37:00,
2013-08-11 13:42:00,82.5,66.7,30.09,West,265,3.0,8.0,59,0.00,,,0.00,Wunderground v.1.15,2013-08-11 18:42:00,
2013-08-11 13:48:00,82.3,66.0,30.09,WSW,252,6.0,8.0,58,0.00,,,0.00,Wunderground v.1.15,2013-08-11 18:48:00,
2013-08-11 13:53:00,82.8,65.5,30.09,SW,227,3.0,9.0,56,0.00,,,0.00,Wunderground v.1.15,2013-08-11 18:53:00,
2013-08-11 13:59:00,83.1,66.3,30.09,West,278,2.0,9.0,57,0.00,,,0.00,Wunderground v.1.15,2013-08-11 18:59:00,
2013-08-11 14:05:00,82.8,65.0,30.09,WSW,251,4.0,6.0,55,0.00,,,0.00,Wunderground v.1.15,2013-08-11 19:05:00,
2013-08-11 14:10:00,83.1,66.3,30.09,SW,234,4.0,9.0,57,0.00,,,0.00,Wunderground v.1.15,2013-08-11 19:10:00,
2013-08-11 14:16:00,83.1,66.8,30.09,West,265,4.0,9.0,58,0.00,,,0.00,Wunderground v.1.15,2013-08-11 19:16:00,
2013-08-11 14:21:00,83.1,67.3,30.09,SW,224,3.0,6.0,59,0.00,,,0.00,Wunderground v.1.15,2013-08-11 19:21:00,
2013-08-11 14:27:00,83.0,65.2,30.09,WNW,283,4.0,9.0,55,0.00,,,0.00,Wunderground v.1.15,2013-08-11 19:27:00,
2013-08-11 14:32:00,82.8,67.0,30.08,West,263,5.0,5.0,59,0.00,,,0.00,Wunderground v.1.15,2013-08-11 19:32:00,
2013-08-11 14:38:00,82.8,65.0,30.08,SW,233,6.0,6.0,55,0.00,,,0.00,Wunderground v.1.15,2013-08-11 19:38:00,
2013-08-11 14:44:00,82.9,65.1,30.08,West,261,5.0,6.0,55,0.00,,,0.00,Wunderground v.1.15,2013-08-11 19:44:00,
2013-08-11 14:49:00,83.0,64.6,30.08,WSW,250,4.0,8.0,54,0.00,,,0.00,Wunderground v.1.15,2013-08-11 19:49:00,
2013-08-11 14:55:00,82.9,65.1,30.08,West,259,6.0,7.0,55,0.00,,,0.00,Wunderground v.1.15,2013-08-11 19:55:00,
2013-08-11 15:00:00,82.9,65.1,30.07,West,281,5.0,5.0,55,0.00,,,0.00,Wunderground v.1.15,2013-08-11 20:00:00,
2013-08-11 15:06:00,83.5,67.7,30.07,West,262,3.0,8.0,59,0.00,,,0.00,Wunderground v.1.15,2013-08-11 20:06:00,
2013-08-11 15:12:00,83.4,68.1,30.07,WSW,258,4.0,7.0,60,0.00,,,0.00,Wunderground v.1.15,2013-08-11 20:12:00,
2013-08-11 15:18:00,83.6,65.2,30.07,West,262,4.0,7.0,54,0.00,,,0.00,Wunderground v.1.15,2013-08-11 20:18:00,
2013-08-11 15:23:00,83.8,65.9,30.06,WSW,248,3.0,9.0,55,0.00,,,0.00,Wunderground v.1.15,2013-08-11 20:23:00,
2013-08-11 15:29:00,83.4,65.5,30.06,West,259,5.0,9.0,55,0.00,,,0.00,Wunderground v.1.15,2013-08-11 20:29:00,
2013-08-11 15:36:00,83.7,66.3,30.06,WSW,253,6.0,9.0,56,0.00,,,0.00,Wunderground v.1.15,2013-08-11 20:36:00,
2013-08-11 15:41:00,83.6,65.2,30.06,West,261,6.0,9.0,54,0.00,,,0.00,Wunderground v.1.15,2013-08-11 20:41:00,
2013-08-11 15:47:00,83.3,63.8,30.05,West,261,7.0,9.0,52,0.00,,,0.00,Wunderground v.1.15,2013-08-11 20:47:00,
2013-08-11 15:53:00,83.5,64.6,30.05,WSW,251,6.0,8.0,53,0.00,,,0.00,Wunderground v.1.15,2013-08-11 20:53:00,
2013-08-11 15:58:00,83.7,65.8,30.05,SW,236,6.0,8.0,55,0.00,,,0.00,Wunderground v.1.15,2013-08-11 20:58:00,
2013-08-11 16:04:00,83.9,65.5,30.05,WSW,258,5.0,11.0,54,0.00,,,0.00,Wunderground v.1.15,2013-08-11 21:04:00,
2013-08-11 16:10:00,83.7,66.8,30.04,West,279,5.0,5.0,57,0.00,,,0.00,Wunderground v.1.15,2013-08-11 21:10:00,
2013-08-11 16:15:00,84.1,66.7,30.04,WSW,253,4.0,5.0,56,0.00,,,0.00,Wunderground v.1.15,2013-08-11 21:15:00,
2013-08-11 16:21:00,84.5,68.1,30.04,SW,219,3.0,3.0,58,0.00,,,0.00,Wunderground v.1.15,2013-08-11 21:21:00,
2013-08-11 16:35:00,84.1,65.1,30.04,West,263,5.0,5.0,53,0.00,,,0.00,Wunderground v.1.15,2013-08-11 21:35:00,
2013-08-11 16:41:00,84.1,65.7,30.04,West,271,4.0,7.0,54,0.00,,,0.00,Wunderground v.1.15,2013-08-11 21:41:00,
2013-08-11 16:47:00,83.8,67.4,30.04,West,279,5.0,8.0,58,0.00,,,0.00,Wunderground v.1.15,2013-08-11 21:47:00,
2013-08-11 16:53:00,84.0,67.6,30.03,West,266,4.0,8.0,58,0.00,,,0.00,Wunderground v.1.15,2013-08-11 21:53:00,
2013-08-11 16:58:00,83.9,66.5,30.03,WSW,256,4.0,8.0,56,0.00,,,0.00,Wunderground v.1.15,2013-08-11 21:58:00,
2013-08-11 17:04:00,84.3,67.9,30.03,SW,234,3.0,5.0,58,0.00,,,0.00,Wunderground v.1.15,2013-08-11 22:04:00,
2013-08-11 17:10:00,84.2,67.3,30.03,SSW,213,3.0,3.0,57,0.00,,,0.00,Wunderground v.1.15,2013-08-11 22:10:00,
2013-08-11 17:18:00,84.3,66.4,30.03,WSW,255,2.0,5.0,55,0.00,,,0.00,Wunderground v.1.15,2013-08-11 22:18:00,
2013-08-11 17:24:00,84.0,67.1,30.03,WSW,244,3.0,6.0,57,0.00,,,0.00,Wunderground v.1.15,2013-08-11 22:24:00,
2013-08-11 17:29:00,83.7,66.3,30.02,SW,234,5.0,6.0,56,0.00,,,0.00,Wunderground v.1.15,2013-08-11 22:29:00,
2013-08-11 17:35:00,83.5,67.2,30.02,West,277,5.0,7.0,58,0.00,,,0.00,Wunderground v.1.15,2013-08-11 22:35:00,
2013-08-11 17:41:00,83.4,67.1,30.02,WSW,251,5.0,10.0,58,0.00,,,0.00,Wunderground v.1.15,2013-08-11 22:41:00,
2013-08-11 17:46:00,83.2,67.4,30.02,West,266,5.0,10.0,59,0.00,,,0.00,Wunderground v.1.15,2013-08-11 22:46:00,
2013-08-11 17:52:00,83.0,67.7,30.02,West,266,5.0,6.0,60,0.00,,,0.00,Wunderground v.1.15,2013-08-11 22:52:00,
2013-08-11 17:57:00,82.8,67.0,30.02,WNW,292,7.0,8.0,59,0.00,,,0.00,Wunderground v.1.15,2013-08-11 22:57:00,
2013-08-11 18:03:00,82.8,67.0,30.02,West,260,6.0,6.0,59,0.00,,,0.00,Wunderground v.1.15,2013-08-11 23:03:00,
2013-08-11 18:08:00,82.7,66.9,30.02,West,271,4.0,6.0,59,0.00,,,0.00,Wunderground v.1.15,2013-08-11 23:08:00,
2013-08-11 18:14:00,82.7,66.4,30.02,WSW,237,3.0,6.0,58,0.00,,,0.00,Wunderground v.1.15,2013-08-11 23:14:00,
2013-08-11 18:20:00,82.6,66.8,30.02,West,272,3.0,5.0,59,0.00,,,0.00,Wunderground v.1.15,2013-08-11 23:20:00,
2013-08-11 18:25:00,82.3,67.0,30.02,West,259,4.0,7.0,60,0.00,,,0.00,Wunderground v.1.15,2013-08-11 23:25:00,
2013-08-11 18:32:00,82.2,67.4,30.02,WSW,250,4.0,7.0,61,0.00,,,0.00,Wunderground v.1.15,2013-08-11 23:32:00,
2013-08-11 18:42:00,82.0,66.7,30.01,WSW,257,3.0,3.0,60,0.00,,,0.00,Wunderground v.1.15,2013-08-11 23:42:00,
2013-08-11 18:48:00,81.8,66.1,30.01,WSW,257,2.0,6.0,59,0.00,,,0.00,Wunderground v.1.15,2013-08-11 23:48:00,
2013-08-11 18:53:00,81.4,66.7,30.01,WSW,257,2.0,2.0,61,0.00,,,0.00,Wunderground v.1.15,2013-08-11 23:53:00,
2013-08-11 18:59:00,81.1,66.8,30.01,WSW,257,1.0,5.0,62,0.00,,,0.00,Wunderground v.1.15,2013-08-11 23:59:00,
2013-08-11 19:04:00,80.9,66.7,30.00,WSW,257,1.0,1.0,62,0.00,,,0.00,Wunderground v.1.15,2013-08-12 00:04:00,
2013-08-11 19:10:00,80.7,67.4,30.00,WSW,257,1.0,1.0,64,0.00,,,0.00,Wunderground v.1.15,2013-08-12 00:10:00,
2013-08-11 19:15:00,80.4,67.6,30.00,WSW,257,0.0,1.0,65,0.00,,,0.00,Wunderground v.1.15,2013-08-12 00:15:00,
2013-08-11 19:21:00,79.9,68.0,30.00,WSW,257,0.0,0.0,67,0.00,,,0.00,Wunderground v.1.15,2013-08-12 00:21:00,
2013-08-11 19:27:00,79.6,68.1,30.00,WSW,257,0.0,0.0,68,0.00,,,0.00,Wunderground v.1.15,2013-08-12 00:27:00,
2013-08-11 19:33:00,79.3,67.8,30.00,WSW,257,0.0,0.0,68,0.00,,,0.00,Wunderground v.1.15,2013-08-12 00:33:00,
2013-08-11 19:47:00,78.2,68.4,30.01,WSW,257,0.0,0.0,72,0.00,,,0.00,Wunderground v.1.15,2013-08-12 00:47:00,
2013-08-11 19:53:00,77.6,67.4,30.01,WSW,257,0.0,0.0,71,0.00,,,0.00,Wunderground v.1.15,2013-08-12 00:53:00,
2013-08-11 19:59:00,76.9,68.4,30.01,WSW,257,0.0,0.0,75,0.00,,,0.00,Wunderground v.1.15,2013-08-12 00:59:00,
2013-08-11 20:05:00,75.9,67.8,30.01,WSW,257,0.0,0.0,76,0.00,,,0.00,Wunderground v.1.15,2013-08-12 01:05:00,
2013-08-11 20:11:00,75.4,67.3,30.01,WSW,257,0.0,0.0,76,0.00,,,0.00,Wunderground v.1.15,2013-08-12 01:11:00,
2013-08-11 20:16:00,75.1,67.0,30.01,WSW,257,0.0,0.0,76,0.00,,,0.00,Wunderground v.1.15,2013-08-12 01:16:00,
2013-08-11 20:25:00,74.7,67.0,30.01,WSW,257,0.0,0.0,77,0.00,,,0.00,Wunderground v.1.15,2013-08-12 01:25:00,
2013-08-11 20:31:00,74.0,67.4,30.01,WSW,257,0.0,0.0,80,0.00,,,0.00,Wunderground v.1.15,2013-08-12 01:31:00,
2013-08-11 20:36:00,73.4,66.5,30.01,WSW,257,0.0,0.0,79,0.00,,,0.00,Wunderground v.1.15,2013-08-12 01:36:00,
2013-08-11 20:42:00,73.0,66.8,30.01,WSW,257,0.0,0.0,81,0.00,,,0.00,Wunderground v.1.15,2013-08-12 01:42:00,
2013-08-11 20:48:00,72.5,66.3,30.01,WSW,257,0.0,0.0,81,0.00,,,0.00,Wunderground v.1.15,2013-08-12 01:48:00,
2013-08-11 20:53:00,72.1,66.3,30.02,WSW,257,0.0,0.0,82,0.00,,,0.00,Wunderground v.1.15,2013-08-12 01:53:00,
2013-08-11 20:59:00,71.9,66.1,30.02,WSW,257,0.0,0.0,82,0.00,,,0.00,Wunderground v.1.15,2013-08-12 01:59:00,
2013-08-11 21:05:00,71.7,65.9,30.02,WSW,257,0.0,0.0,82,0.00,,,0.00,Wunderground v.1.15,2013-08-12 02:05:00,
2013-08-11 21:11:00,71.7,65.6,30.02,WSW,257,0.0,0.0,81,0.00,,,0.00,Wunderground v.1.15,2013-08-12 02:11:00,
2013-08-11 21:16:00,71.7,65.6,30.02,WSW,257,0.0,0.0,81,0.00,,,0.00,Wunderground v.1.15,2013-08-12 02:16:00,
2013-08-11 21:22:00,71.6,65.8,30.03,WSW,257,0.0,0.0,82,0.00,,,0.00,Wunderground v.1.15,2013-08-12 02:22:00,
2013-08-11 21:28:00,71.5,65.7,30.03,WSW,257,0.0,0.0,82,0.00,,,0.00,Wunderground v.1.15,2013-08-12 02:28:00,
2013-08-11 21:33:00,71.5,65.7,30.03,WSW,257,0.0,0.0,82,0.00,,,0.00,Wunderground v.1.15,2013-08-12 02:33:00,
2013-08-11 21:40:00,71.7,65.6,30.03,WSW,257,0.0,0.0,81,0.00,,,0.00,Wunderground v.1.15,2013-08-12 02:40:00,
2013-08-11 21:46:00,71.5,65.4,30.03,WSW,257,0.0,0.0,81,0.00,,,0.00,Wunderground v.1.15,2013-08-12 02:46:00,
2013-08-11 21:52:00,71.4,65.3,30.03,WSW,257,0.0,0.0,81,0.00,,,0.00,Wunderground v.1.15,2013-08-12 02:52:00,
2013-08-11 21:57:00,71.3,65.5,30.03,WSW,257,0.0,0.0,82,0.00,,,0.00,Wunderground v.1.15,2013-08-12 02:57:00,
2013-08-11 22:03:00,71.0,65.6,30.03,WSW,257,0.0,0.0,83,0.00,,,0.00,Wunderground v.1.15,2013-08-12 03:03:00,
2013-08-11 22:11:00,70.5,65.1,30.03,WSW,257,0.0,0.0,83,0.00,,,0.00,Wunderground v.1.15,2013-08-12 03:11:00,
2013-08-11 22:17:00,70.4,65.0,30.03,WSW,257,0.0,0.0,83,0.00,,,0.00,Wunderground v.1.15,2013-08-12 03:17:00,
2013-08-11 22:24:00,69.8,65.1,30.03,WSW,257,0.0,0.0,85,0.00,,,0.00,Wunderground v.1.15,2013-08-12 03:24:00,
2013-08-11 22:30:00,69.3,64.9,30.03,WSW,257,0.0,0.0,86,0.00,,,0.00,Wunderground v.1.15,2013-08-12 03:30:00,
2013-08-11 22:36:00,69.2,64.8,30.03,WSW,257,0.0,0.0,86,0.00,,,0.00,Wunderground v.1.15,2013-08-12 03:36:00,
2013-08-11 22:41:00,69.0,64.6,30.03,WSW,257,0.0,0.0,86,0.00,,,0.00,Wunderground v.1.15,2013-08-12 03:41:00,
2013-08-11 22:47:00,69.1,64.7,30.03,WSW,257,0.0,0.0,86,0.00,,,0.00,Wunderground v.1.15,2013-08-12 03:47:00,
2013-08-11 22:52:00,69.2,64.8,30.03,WSW,257,0.0,0.0,86,0.00,,,0.00,Wunderground v.1.15,2013-08-12 03:52:00,
2013-08-11 22:58:00,69.4,65.0,30.03,WSW,257,0.0,0.0,86,0.00,,,0.00,Wunderground v.1.15,2013-08-12 03:58:00,
2013-08-11 23:01:00,69.4,65.0,30.02,WSW,257,0.0,1.0,86,0.00,,,0.00,Wunderground v.1.15,2013-08-12 04:01:00,
2013-08-11 23:02:00,69.5,65.1,30.02,WSW,257,0.0,1.0,86,0.00,,,0.00,Wunderground v.1.15,2013-08-12 04:02:00,
2013-08-11 23:03:00,69.5,65.1,30.02,WSW,257,0.0,1.0,86,0.00,,,0.00,Wunderground v.1.15,2013-08-12 04:03:00,
2013-08-11 23:04:00,69.5,65.1,30.02,WSW,257,0.0,1.0,86,0.00,,,0.00,Wunderground v.1.15,2013-08-12 04:04:00,
2013-08-11 23:09:00,69.4,65.0,30.03,WSW,257,0.0,1.0,86,0.00,,,0.00,Wunderground v.1.15,2013-08-12 04:09:00,
2013-08-11 23:10:00,69.4,65.0,30.03,WSW,257,1.0,2.0,86,0.00,,,0.00,Wunderground v.1.15,2013-08-12 04:10:00,
2013-08-11 23:16:00,69.4,65.0,30.03,WSW,257,0.0,2.0,86,0.00,,,0.00,Wunderground v.1.15,2013-08-12 04:16:00,
2013-08-11 23:21:00,69.4,65.0,30.03,WSW,257,1.0,1.0,86,0.00,,,0.00,Wunderground v.1.15,2013-08-12 04:21:00,
2013-08-11 23:27:00,69.4,65.4,30.02,WSW,257,1.0,2.0,87,0.00,,,0.00,Wunderground v.1.15,2013-08-12 04:27:00,
2013-08-11 23:33:00,69.3,65.3,30.02,WSW,257,1.0,1.0,87,0.00,,,0.00,Wunderground v.1.15,2013-08-12 04:33:00,
2013-08-11 23:39:00,69.3,65.3,30.03,WSW,257,1.0,2.0,87,0.00,,,0.00,Wunderground v.1.15,2013-08-12 04:39:00,
2013-08-11 23:45:00,69.2,65.2,30.03,WSW,257,0.0,1.0,87,0.00,,,0.00,Wunderground v.1.15,2013-08-12 04:45:00,
2013-08-11 23:50:00,69.0,65.0,30.03,WSW,257,0.0,0.0,87,0.00,,,0.00,Wunderground v.1.15,2013-08-12 04:50:00,
2013-08-11 23:56:00,69.0,65.0,30.02,WSW,257,0.0,0.0,87,0.00,,,0.00,Wunderground v.1.15,2013-08-12 04:56:00,